Time,TemperatureF,DewpointF,PressureIn,WindDirection,WindDirectionDegrees,WindSpeedMPH,WindSpeedGustMPH,Humidity,HourlyPrecipIn,Conditions,Clouds,dailyrainin,SoftwareType,DateUTC
2013-01-09 00:00:00,48.3,39.0,29.26,East,90,0.0,-999.0,72,0.00,,,0.00,Rainwise IP-100,2013-01-09 05:00:00,
2013-01-09 00:02:00,48.4,39.0,29.25,East,90,0.0,-999.0,72,0.00,,,0.00,Rainwise IP-100,2013-01-09 05:02:00,
2013-01-09 00:07:00,48.4,39.0,29.25,East,90,0.0,-999.0,72,0.00,,,0.00,Rainwise IP-100,2013-01-09 05:07:00,
2013-01-09 00:12:00,48.4,40.0,29.26,East,90,0.0,-999.0,73,0.00,,,0.00,Rainwise IP-100,2013-01-09 05:12:00,
2013-01-09 00:17:00,48.4,40.0,29.26,ENE,67,0.0,-999.0,73,0.00,,,0.00,Rainwise IP-100,2013-01-09 05:17:00,
2013-01-09 00:22:00,48.5,41.0,29.26,SE,135,0.0,-999.0,73,0.00,,,0.00,Rainwise IP-100,2013-01-09 05:22:00,
2013-01-09 00:27:00,48.5,41.0,29.26,ENE,67,1.2,-999.0,73,0.00,,,0.00,Rainwise IP-100,2013-01-09 05:27:00,
2013-01-09 00:32:00,48.5,41.0,29.26,East,90,0.0,-999.0,73,0.00,,,0.00,Rainwise IP-100,2013-01-09 05:32:00,
2013-01-09 00:37:00,48.6,41.0,29.26,ESE,112,0.0,-999.0,73,0.00,,,0.00,Rainwise IP-100,2013-01-09 05:37:00,
2013-01-09 00:42:00,48.6,41.0,29.26,NNE,22,0.0,-999.0,73,0.00,,,0.00,Rainwise IP-100,2013-01-09 05:42:00,
2013-01-09 00:47:00,48.7,41.0,29.26,NNW,337,0.0,-999.0,73,0.00,,,0.00,Rainwise IP-100,2013-01-09 05:47:00,
2013-01-09 00:52:00,48.7,41.0,29.26,ENE,67,0.0,-999.0,73,0.00,,,0.00,Rainwise IP-100,2013-01-09 05:52:00,
2013-01-09 00:57:00,48.7,41.0,29.26,ESE,112,0.0,-999.0,73,0.00,,,0.00,Rainwise IP-100,2013-01-09 05:57:00,
2013-01-09 01:02:00,48.7,41.0,29.26,NNE,22,0.0,-999.0,73,0.00,,,0.00,Rainwise IP-100,2013-01-09 06:02:00,
2013-01-09 01:07:00,48.8,41.0,29.26,ENE,67,1.4,-999.0,73,0.00,,,0.00,Rainwise IP-100,2013-01-09 06:07:00,
2013-01-09 01:12:00,48.8,41.0,29.26,ESE,112,0.0,-999.0,73,0.00,,,0.00,Rainwise IP-100,2013-01-09 06:12:00,
2013-01-09 01:17:00,48.8,41.0,29.26,NNE,22,0.0,-999.0,73,0.00,,,0.00,Rainwise IP-100,2013-01-09 06:17:00,
2013-01-09 01:22:00,48.8,41.0,29.26,ENE,67,0.0,-999.0,73,0.00,,,0.00,Rainwise IP-100,2013-01-09 06:22:00,
2013-01-09 01:27:00,48.8,41.0,29.26,ENE,67,0.0,-999.0,73,0.00,,,0.00,Rainwise IP-100,2013-01-09 06:27:00,
2013-01-09 01:32:00,48.8,41.0,29.26,ENE,67,0.0,-999.0,73,0.00,,,0.00,Rainwise IP-100,2013-01-09 06:32:00,
2013-01-09 01:37:00,48.8,41.0,29.27,NNW,337,0.0,-999.0,74,0.00,,,0.00,Rainwise IP-100,2013-01-09 06:37:00,
2013-01-09 01:42:00,48.8,41.0,29.27,ESE,112,0.0,-999.0,74,0.00,,,0.00,Rainwise IP-100,2013-01-09 06:42:00,
2013-01-09 01:47:00,48.8,41.0,29.27,ENE,67,0.0,-999.0,74,0.00,,,0.00,Rainwise IP-100,2013-01-09 06:47:00,
2013-01-09 01:52:00,48.8,41.0,29.27,ENE,67,0.0,-999.0,74,0.00,,,0.00,Rainwise IP-100,2013-01-09 06:52:00,
2013-01-09 01:57:00,48.9,41.0,29.27,ENE,67,0.0,-999.0,74,0.00,,,0.00,Rainwise IP-100,2013-01-09 06:57:00,
2013-01-09 02:02:00,48.8,41.0,29.26,ENE,67,0.0,-999.0,74,0.00,,,0.00,Rainwise IP-100,2013-01-09 07:02:00,
2013-01-09 02:07:00,48.8,41.0,29.26,ENE,67,0.0,-999.0,74,0.00,,,0.00,Rainwise IP-100,2013-01-09 07:07:00,
2013-01-09 02:12:00,48.8,41.0,29.26,NNW,337,0.0,-999.0,74,0.00,,,0.00,Rainwise IP-100,2013-01-09 07:12:00,
2013-01-09 02:17:00,48.7,41.0,29.27,ESE,112,0.0,-999.0,74,0.00,,,0.00,Rainwise IP-100,2013-01-09 07:17:00,
2013-01-09 02:22:00,48.7,41.0,29.27,ESE,112,0.0,-999.0,74,0.00,,,0.00,Rainwise IP-100,2013-01-09 07:22:00,
2013-01-09 02:27:00,48.8,41.0,29.27,ENE,67,0.0,-999.0,74,0.00,,,0.00,Rainwise IP-100,2013-01-09 07:27:00,
2013-01-09 02:32:00,48.8,41.0,29.27,ENE,67,0.0,-999.0,74,0.00,,,0.00,Rainwise IP-100,2013-01-09 07:32:00,
2013-01-09 02:37:00,48.8,41.0,29.26,ENE,67,3.7,-999.0,74,0.00,,,0.00,Rainwise IP-100,2013-01-09 07:37:00,
2013-01-09 02:42:00,48.8,41.0,29.26,ENE,67,0.0,-999.0,74,0.00,,,0.00,Rainwise IP-100,2013-01-09 07:42:00,
2013-01-09 02:47:00,48.8,41.0,29.26,ENE,67,0.0,-999.0,74,0.00,,,0.00,Rainwise IP-100,2013-01-09 07:47:00,
2013-01-09 02:52:00,48.8,41.0,29.26,WNW,292,0.0,-999.0,74,0.00,,,0.00,Rainwise IP-100,2013-01-09 07:52:00,
2013-01-09 02:57:00,48.8,41.0,29.25,NNW,337,0.0,-999.0,74,0.00,,,0.00,Rainwise IP-100,2013-01-09 07:57:00,
2013-01-09 03:02:00,48.8,41.0,29.25,ENE,67,0.0,-999.0,74,0.00,,,0.00,Rainwise IP-100,2013-01-09 08:02:00,
2013-01-09 03:07:00,48.8,41.0,29.26,NNE,22,0.0,-999.0,74,0.00,,,0.00,Rainwise IP-100,2013-01-09 08:07:00,
2013-01-09 03:12:00,48.8,41.0,29.26,SSE,157,0.0,-999.0,74,0.00,,,0.00,Rainwise IP-100,2013-01-09 08:12:00,
2013-01-09 03:17:00,48.9,41.0,29.27,East,90,0.0,-999.0,73,0.00,,,0.00,Rainwise IP-100,2013-01-09 08:17:00,
2013-01-09 03:22:00,48.9,41.0,29.26,NNE,22,0.0,-999.0,73,0.00,,,0.00,Rainwise IP-100,2013-01-09 08:22:00,
2013-01-09 03:27:00,48.9,41.0,29.26,ENE,67,0.0,-999.0,74,0.00,,,0.00,Rainwise IP-100,2013-01-09 08:27:00,
2013-01-09 03:32:00,48.9,41.0,29.26,ENE,67,0.0,-999.0,74,0.00,,,0.00,Rainwise IP-100,2013-01-09 08:32:00,
2013-01-09 03:37:00,48.9,41.0,29.26,NE,45,0.0,-999.0,74,0.00,,,0.00,Rainwise IP-100,2013-01-09 08:37:00,
2013-01-09 03:42:00,48.9,41.0,29.27,ENE,67,1.6,-999.0,74,0.00,,,0.00,Rainwise IP-100,2013-01-09 08:42:00,
2013-01-09 03:47:00,49.0,41.0,29.27,NNE,22,0.0,-999.0,74,0.00,,,0.00,Rainwise IP-100,2013-01-09 08:47:00,
2013-01-09 03:52:00,49.0,41.0,29.27,NNE,22,0.0,-999.0,74,0.00,,,0.00,Rainwise IP-100,2013-01-09 08:52:00,
2013-01-09 03:54:00,49.0,41.0,29.27,NNE,22,0.0,-999.0,74,0.00,,,0.00,Rainwise IP-100,2013-01-09 08:54:00,
2013-01-09 03:55:00,49.0,41.0,29.27,NNE,22,0.0,-999.0,74,0.00,,,0.00,Rainwise IP-100,2013-01-09 08:55:00,
2013-01-09 04:00:00,49.0,41.0,29.27,ENE,67,0.0,-999.0,74,0.00,,,0.00,Rainwise IP-100,2013-01-09 09:00:00,
2013-01-09 04:06:00,49.1,41.0,29.27,ENE,67,0.0,-999.0,74,0.00,,,0.00,Rainwise IP-100,2013-01-09 09:06:00,
2013-01-09 04:11:00,49.1,41.0,29.27,North,360,0.0,-999.0,74,0.00,,,0.00,Rainwise IP-100,2013-01-09 09:11:00,
2013-01-09 04:16:00,49.1,41.0,29.26,North,360,0.0,-999.0,74,0.00,,,0.00,Rainwise IP-100,2013-01-09 09:16:00,
2013-01-09 04:21:00,49.1,41.0,29.27,North,360,0.0,-999.0,74,0.00,,,0.00,Rainwise IP-100,2013-01-09 09:21:00,
2013-01-09 04:26:00,49.1,41.0,29.26,ESE,112,0.0,-999.0,74,0.00,,,0.00,Rainwise IP-100,2013-01-09 09:26:00,
2013-01-09 04:31:00,49.1,41.0,29.26,ENE,67,0.0,-999.0,74,0.00,,,0.00,Rainwise IP-100,2013-01-09 09:31:00,
2013-01-09 04:36:00,49.1,41.0,29.26,ENE,67,1.2,-999.0,74,0.00,,,0.00,Rainwise IP-100,2013-01-09 09:36:00,
2013-01-09 04:41:00,49.1,41.0,29.26,SE,135,0.0,-999.0,74,0.00,,,0.00,Rainwise IP-100,2013-01-09 09:41:00,
2013-01-09 04:46:00,49.1,41.0,29.26,ENE,67,0.0,-999.0,74,0.00,,,0.00,Rainwise IP-100,2013-01-09 09:46:00,
2013-01-09 04:51:00,49.1,41.0,29.26,ESE,112,0.0,-999.0,75,0.00,,,0.00,Rainwise IP-100,2013-01-09 09:51:00,
2013-01-09 04:56:00,49.1,41.0,29.26,SSE,157,0.0,-999.0,75,0.00,,,0.00,Rainwise IP-100,2013-01-09 09:56:00,
2013-01-09 05:01:00,49.2,41.0,29.27,ENE,67,1.6,-999.0,75,0.00,,,0.00,Rainwise IP-100,2013-01-09 10:01:00,
2013-01-09 05:06:00,49.3,41.0,29.27,ESE,112,0.0,-999.0,75,0.00,,,0.00,Rainwise IP-100,2013-01-09 10:06:00,
2013-01-09 05:11:00,49.3,41.0,29.27,ESE,112,0.0,-999.0,75,0.00,,,0.00,Rainwise IP-100,2013-01-09 10:11:00,
2013-01-09 05:16:00,49.3,41.0,29.27,ESE,112,0.0,-999.0,75,0.00,,,0.00,Rainwise IP-100,2013-01-09 10:16:00,
2013-01-09 05:21:00,49.3,41.0,29.27,ENE,67,0.0,-999.0,75,0.00,,,0.00,Rainwise IP-100,2013-01-09 10:21:00,
2013-01-09 05:26:00,49.2,42.0,29.27,SSE,157,0.0,-999.0,76,0.00,,,0.00,Rainwise IP-100,2013-01-09 10:26:00,
2013-01-09 05:31:00,49.1,42.0,29.27,SSE,157,0.0,-999.0,77,0.00,,,0.00,Rainwise IP-100,2013-01-09 10:31:00,
2013-01-09 05:36:00,49.1,42.0,29.26,ENE,67,0.0,-999.0,77,0.00,,,0.00,Rainwise IP-100,2013-01-09 10:36:00,
2013-01-09 05:41:00,49.1,42.0,29.27,SSE,157,0.0,-999.0,77,0.00,,,0.00,Rainwise IP-100,2013-01-09 10:41:00,
2013-01-09 05:46:00,49.1,42.0,29.27,SSE,157,0.0,-999.0,78,0.00,,,0.00,Rainwise IP-100,2013-01-09 10:46:00,
2013-01-09 05:51:00,49.1,42.0,29.27,SSE,157,0.0,-999.0,77,0.00,,,0.00,Rainwise IP-100,2013-01-09 10:51:00,
2013-01-09 05:56:00,49.1,42.0,29.28,SSE,157,0.0,-999.0,77,0.00,,,0.00,Rainwise IP-100,2013-01-09 10:56:00,
2013-01-09 06:01:00,49.1,42.0,29.28,SSE,157,0.0,-999.0,78,0.00,,,0.00,Rainwise IP-100,2013-01-09 11:01:00,
2013-01-09 06:06:00,49.1,42.0,29.27,SSE,157,0.0,-999.0,78,0.00,,,0.00,Rainwise IP-100,2013-01-09 11:06:00,
2013-01-09 06:11:00,49.1,42.0,29.28,SSE,157,0.0,-999.0,78,0.00,,,0.00,Rainwise IP-100,2013-01-09 11:11:00,
2013-01-09 06:16:00,49.2,42.0,29.28,SSE,157,0.0,-999.0,78,0.00,,,0.00,Rainwise IP-100,2013-01-09 11:16:00,
2013-01-09 06:21:00,49.1,42.0,29.28,SSE,157,0.0,-999.0,78,0.00,,,0.00,Rainwise IP-100,2013-01-09 11:21:00,
2013-01-09 06:26:00,49.2,42.0,29.28,SSE,157,0.0,-999.0,78,0.00,,,0.00,Rainwise IP-100,2013-01-09 11:26:00,
2013-01-09 06:31:00,49.2,43.0,29.28,East,90,0.0,-999.0,79,0.00,,,0.00,Rainwise IP-100,2013-01-09 11:31:00,
2013-01-09 06:36:00,49.3,43.0,29.28,East,90,0.0,-999.0,79,0.00,,,0.00,Rainwise IP-100,2013-01-09 11:36:00,
2013-01-09 06:41:00,49.3,43.0,29.28,NNE,22,0.0,-999.0,79,0.00,,,0.00,Rainwise IP-100,2013-01-09 11:41:00,
2013-01-09 06:46:00,49.3,43.0,29.28,NNE,22,0.0,-999.0,79,0.00,,,0.00,Rainwise IP-100,2013-01-09 11:46:00,
2013-01-09 06:51:00,49.3,43.0,29.28,NNE,22,0.0,-999.0,79,0.00,,,0.00,Rainwise IP-100,2013-01-09 11:51:00,
2013-01-09 06:56:00,49.3,43.0,29.29,NNE,22,0.0,-999.0,80,0.00,,,0.00,Rainwise IP-100,2013-01-09 11:56:00,
2013-01-09 07:01:00,49.2,43.0,29.29,NNE,22,0.0,-999.0,80,0.00,,,0.00,Rainwise IP-100,2013-01-09 12:01:00,
2013-01-09 07:06:00,49.2,43.0,29.29,NNW,337,0.0,-999.0,80,0.00,,,0.00,Rainwise IP-100,2013-01-09 12:06:00,
2013-01-09 07:11:00,49.2,43.0,29.29,NNW,337,0.0,-999.0,80,0.00,,,0.00,Rainwise IP-100,2013-01-09 12:11:00,
2013-01-09 07:16:00,49.2,43.0,29.30,NNW,337,0.0,-999.0,80,0.00,,,0.00,Rainwise IP-100,2013-01-09 12:16:00,
2013-01-09 07:21:00,49.2,43.0,29.29,ENE,67,0.0,-999.0,80,0.00,,,0.00,Rainwise IP-100,2013-01-09 12:21:00,
2013-01-09 07:26:00,49.3,43.0,29.30,ENE,67,0.0,-999.0,80,0.00,,,0.00,Rainwise IP-100,2013-01-09 12:26:00,
2013-01-09 07:31:00,49.3,43.0,29.30,NNE,22,0.0,-999.0,80,0.00,,,0.00,Rainwise IP-100,2013-01-09 12:31:00,
2013-01-09 07:36:00,49.3,43.0,29.30,ESE,112,0.0,-999.0,80,0.00,,,0.00,Rainwise IP-100,2013-01-09 12:36:00,
2013-01-09 07:41:00,49.4,43.0,29.30,ENE,67,1.9,-999.0,80,0.00,,,0.00,Rainwise IP-100,2013-01-09 12:41:00,
2013-01-09 07:46:00,49.4,43.0,29.30,ENE,67,0.0,-999.0,80,0.00,,,0.00,Rainwise IP-100,2013-01-09 12:46:00,
2013-01-09 07:51:00,49.5,44.0,29.31,WNW,292,0.0,-999.0,80,0.00,,,0.00,Rainwise IP-100,2013-01-09 12:51:00,
2013-01-09 07:56:00,49.5,44.0,29.31,WNW,292,0.0,-999.0,80,0.00,,,0.00,Rainwise IP-100,2013-01-09 12:56:00,
2013-01-09 08:01:00,49.5,44.0,29.30,ENE,67,0.0,-999.0,80,0.00,,,0.00,Rainwise IP-100,2013-01-09 13:01:00,
2013-01-09 08:06:00,49.5,44.0,29.30,ESE,112,0.0,-999.0,80,0.00,,,0.00,Rainwise IP-100,2013-01-09 13:06:00,
2013-01-09 08:11:00,49.7,44.0,29.31,ESE,112,0.0,-999.0,80,0.00,,,0.00,Rainwise IP-100,2013-01-09 13:11:00,
2013-01-09 08:16:00,49.8,44.0,29.31,ESE,112,1.2,-999.0,80,0.00,,,0.00,Rainwise IP-100,2013-01-09 13:16:00,
2013-01-09 08:21:00,49.9,43.0,29.31,ENE,67,0.0,-999.0,79,0.00,,,0.00,Rainwise IP-100,2013-01-09 13:21:00,
2013-01-09 08:26:00,50.1,43.0,29.31,ENE,67,1.2,-999.0,79,0.00,,,0.00,Rainwise IP-100,2013-01-09 13:26:00,
2013-01-09 08:31:00,50.2,43.0,29.31,SE,135,0.0,-999.0,78,0.00,,,0.00,Rainwise IP-100,2013-01-09 13:31:00,
2013-01-09 08:36:00,50.4,44.0,29.31,West,270,0.0,-999.0,78,0.00,,,0.00,Rainwise IP-100,2013-01-09 13:36:00,
2013-01-09 08:41:00,50.6,44.0,29.32,WNW,292,0.0,-999.0,78,0.00,,,0.00,Rainwise IP-100,2013-01-09 13:41:00,
2013-01-09 08:46:00,50.7,44.0,29.32,SSE,157,0.0,-999.0,78,0.00,,,0.00,Rainwise IP-100,2013-01-09 13:46:00,
2013-01-09 08:51:00,50.9,44.0,29.32,ENE,67,0.0,-999.0,77,0.00,,,0.00,Rainwise IP-100,2013-01-09 13:51:00,
2013-01-09 08:56:00,50.9,44.0,29.32,SE,135,1.6,-999.0,77,0.00,,,0.00,Rainwise IP-100,2013-01-09 13:56:00,
2013-01-09 09:01:00,51.0,44.0,29.32,East,90,1.9,-999.0,77,0.00,,,0.00,Rainwise IP-100,2013-01-09 14:01:00,
2013-01-09 09:06:00,51.1,44.0,29.32,SSE,157,0.0,-999.0,77,0.00,,,0.00,Rainwise IP-100,2013-01-09 14:06:00,
2013-01-09 09:11:00,51.2,44.0,29.32,ENE,67,1.4,-999.0,77,0.00,,,0.00,Rainwise IP-100,2013-01-09 14:11:00,
2013-01-09 09:16:00,51.3,44.0,29.33,ENE,67,0.0,-999.0,77,0.00,,,0.00,Rainwise IP-100,2013-01-09 14:16:00,
2013-01-09 09:21:00,51.5,45.0,29.32,ENE,67,0.0,-999.0,77,0.00,,,0.00,Rainwise IP-100,2013-01-09 14:21:00,
2013-01-09 09:26:00,51.7,45.0,29.32,ENE,67,0.0,-999.0,77,0.00,,,0.00,Rainwise IP-100,2013-01-09 14:26:00,
2013-01-09 09:31:00,51.9,45.0,29.32,ENE,67,0.0,-999.0,77,0.00,,,0.00,Rainwise IP-100,2013-01-09 14:31:00,
2013-01-09 09:36:00,52.1,45.0,29.33,ENE,67,0.0,-999.0,76,0.00,,,0.00,Rainwise IP-100,2013-01-09 14:36:00,
2013-01-09 09:41:00,52.4,45.0,29.33,SW,225,0.0,-999.0,76,0.00,,,0.00,Rainwise IP-100,2013-01-09 14:41:00,
2013-01-09 09:46:00,52.6,45.0,29.33,SW,225,0.0,-999.0,76,0.00,,,0.00,Rainwise IP-100,2013-01-09 14:46:00,
2013-01-09 09:51:00,52.8,45.0,29.34,SW,225,0.0,-999.0,75,0.00,,,0.00,Rainwise IP-100,2013-01-09 14:51:00,
2013-01-09 09:56:00,53.1,45.0,29.33,ENE,67,0.0,-999.0,75,0.00,,,0.00,Rainwise IP-100,2013-01-09 14:56:00,
2013-01-09 10:01:00,53.4,46.0,29.34,ENE,67,0.0,-999.0,75,0.00,,,0.00,Rainwise IP-100,2013-01-09 15:01:00,
2013-01-09 10:06:00,53.6,46.0,29.34,ENE,67,0.0,-999.0,75,0.00,,,0.00,Rainwise IP-100,2013-01-09 15:06:00,
2013-01-09 10:11:00,53.9,46.0,29.34,ENE,67,0.0,-999.0,74,0.00,,,0.00,Rainwise IP-100,2013-01-09 15:11:00,
2013-01-09 10:16:00,54.3,47.0,29.34,ENE,67,1.2,-999.0,74,0.00,,,0.00,Rainwise IP-100,2013-01-09 15:16:00,
2013-01-09 10:21:00,54.6,47.0,29.34,ENE,67,0.0,-999.0,74,0.00,,,0.00,Rainwise IP-100,2013-01-09 15:21:00,
2013-01-09 10:26:00,54.8,47.0,29.34,ENE,67,0.0,-999.0,73,0.00,,,0.00,Rainwise IP-100,2013-01-09 15:26:00,
2013-01-09 10:31:00,55.1,47.0,29.34,SSW,202,0.0,-999.0,73,0.00,,,0.00,Rainwise IP-100,2013-01-09 15:31:00,
2013-01-09 10:36:00,55.3,47.0,29.34,ENE,67,0.0,-999.0,72,0.00,,,0.00,Rainwise IP-100,2013-01-09 15:36:00,
2013-01-09 10:41:00,55.5,47.0,29.34,ENE,67,0.0,-999.0,72,0.00,,,0.00,Rainwise IP-100,2013-01-09 15:41:00,
2013-01-09 10:46:00,55.8,47.0,29.33,ENE,67,0.0,-999.0,72,0.00,,,0.00,Rainwise IP-100,2013-01-09 15:46:00,
2013-01-09 10:51:00,56.2,47.0,29.34,SSW,202,0.0,-999.0,72,0.00,,,0.00,Rainwise IP-100,2013-01-09 15:51:00,
2013-01-09 10:56:00,56.5,47.5,29.33,SSW,202,0.0,-999.0,71,0.00,,,0.00,Rainwise IP-100,2013-01-09 15:56:00,
2013-01-09 11:01:00,56.9,47.5,29.33,SSE,157,1.4,-999.0,71,0.00,,,0.00,Rainwise IP-100,2013-01-09 16:01:00,
2013-01-09 11:06:00,57.1,47.5,29.33,ESE,112,1.2,-999.0,71,0.00,,,0.00,Rainwise IP-100,2013-01-09 16:06:00,
2013-01-09 11:11:00,57.3,48.0,29.32,ESE,112,0.0,-999.0,71,0.00,,,0.00,Rainwise IP-100,2013-01-09 16:11:00,
2013-01-09 11:16:00,57.5,48.0,29.33,ESE,112,0.0,-999.0,71,0.00,,,0.00,Rainwise IP-100,2013-01-09 16:16:00,
2013-01-09 11:21:00,57.8,49.0,29.32,East,90,1.6,-999.0,71,0.00,,,0.00,Rainwise IP-100,2013-01-09 16:21:00,
2013-01-09 11:26:00,58.0,49.0,29.32,East,90,0.0,-999.0,71,0.00,,,0.00,Rainwise IP-100,2013-01-09 16:26:00,
2013-01-09 11:31:00,58.1,49.0,29.31,ENE,67,0.0,-999.0,71,0.00,,,0.00,Rainwise IP-100,2013-01-09 16:31:00,
2013-01-09 11:36:00,58.4,48.0,29.31,WNW,292,0.0,-999.0,70,0.00,,,0.00,Rainwise IP-100,2013-01-09 16:36:00,
2013-01-09 11:41:00,58.8,49.0,29.31,NNE,22,0.0,-999.0,70,0.00,,,0.00,Rainwise IP-100,2013-01-09 16:41:00,
2013-01-09 11:46:00,59.0,49.0,29.31,NNE,22,0.0,-999.0,70,0.00,,,0.00,Rainwise IP-100,2013-01-09 16:46:00,
2013-01-09 11:51:00,59.2,49.0,29.31,ESE,112,1.2,-999.0,70,0.00,,,0.00,Rainwise IP-100,2013-01-09 16:51:00,
2013-01-09 11:56:00,59.5,50.0,29.31,East,90,1.6,-999.0,70,0.00,,,0.00,Rainwise IP-100,2013-01-09 16:56:00,
2013-01-09 12:01:00,59.9,50.0,29.30,East,90,0.0,-999.0,69,0.00,,,0.00,Rainwise IP-100,2013-01-09 17:01:00,
2013-01-09 12:06:00,60.5,50.5,29.31,East,90,0.0,-999.0,69,0.00,,,0.00,Rainwise IP-100,2013-01-09 17:06:00,
2013-01-09 12:11:00,60.9,50.5,29.30,ENE,67,0.0,-999.0,68,0.00,,,0.00,Rainwise IP-100,2013-01-09 17:11:00,
2013-01-09 12:16:00,61.3,50.5,29.29,ENE,67,0.0,-999.0,68,0.00,,,0.00,Rainwise IP-100,2013-01-09 17:16:00,
2013-01-09 12:21:00,61.7,50.5,29.30,SSE,157,0.0,-999.0,68,0.00,,,0.00,Rainwise IP-100,2013-01-09 17:21:00,
2013-01-09 12:26:00,61.9,51.0,29.29,SSE,157,0.0,-999.0,68,0.00,,,0.00,Rainwise IP-100,2013-01-09 17:26:00,
2013-01-09 12:31:00,62.1,51.0,29.30,ENE,67,0.0,-999.0,68,0.00,,,0.00,Rainwise IP-100,2013-01-09 17:31:00,
2013-01-09 12:36:00,62.2,51.0,29.30,ESE,112,0.0,-999.0,68,0.00,,,0.00,Rainwise IP-100,2013-01-09 17:36:00,
2013-01-09 12:41:00,62.3,52.0,29.29,ESE,112,0.0,-999.0,68,0.00,,,0.00,Rainwise IP-100,2013-01-09 17:41:00,
2013-01-09 12:46:00,62.2,51.0,29.30,ESE,112,1.2,-999.0,68,0.00,,,0.00,Rainwise IP-100,2013-01-09 17:46:00,
2013-01-09 12:51:00,62.0,51.0,29.29,SSW,202,0.0,-999.0,68,0.00,,,0.00,Rainwise IP-100,2013-01-09 17:51:00,
2013-01-09 12:56:00,62.0,52.0,29.29,ENE,67,0.0,-999.0,69,0.00,,,0.00,Rainwise IP-100,2013-01-09 17:56:00,
2013-01-09 13:01:00,61.9,52.0,29.28,ESE,112,0.0,-999.0,69,0.00,,,0.00,Rainwise IP-100,2013-01-09 18:01:00,
2013-01-09 13:06:00,62.0,52.0,29.28,WSW,247,0.0,-999.0,70,0.00,,,0.00,Rainwise IP-100,2013-01-09 18:06:00,
2013-01-09 13:11:00,62.3,53.0,29.28,NNW,337,0.0,-999.0,70,0.00,,,0.00,Rainwise IP-100,2013-01-09 18:11:00,
2013-01-09 13:16:00,62.6,53.0,29.28,NNW,337,0.0,-999.0,70,0.00,,,0.00,Rainwise IP-100,2013-01-09 18:16:00,
2013-01-09 13:21:00,62.8,53.5,29.28,ENE,67,0.0,-999.0,70,0.00,,,0.00,Rainwise IP-100,2013-01-09 18:21:00,
2013-01-09 13:26:00,62.9,53.5,29.27,West,270,0.0,-999.0,70,0.00,,,0.00,Rainwise IP-100,2013-01-09 18:26:00,
2013-01-09 13:31:00,63.1,53.5,29.28,ENE,67,0.0,-999.0,71,0.00,,,0.00,Rainwise IP-100,2013-01-09 18:31:00,
2013-01-09 13:36:00,63.1,53.5,29.28,ESE,112,0.0,-999.0,70,0.00,,,0.00,Rainwise IP-100,2013-01-09 18:36:00,
2013-01-09 13:41:00,63.1,53.5,29.27,ESE,112,0.0,-999.0,70,0.00,,,0.00,Rainwise IP-100,2013-01-09 18:41:00,
2013-01-09 13:44:00,63.1,53.5,29.27,ENE,67,0.0,-999.0,70,0.00,,,0.00,Rainwise IP-100,2013-01-09 18:44:00,
2013-01-09 13:48:00,63.3,53.5,29.27,ESE,112,0.0,-999.0,70,0.00,,,0.00,Rainwise IP-100,2013-01-09 18:48:00,
2013-01-09 13:53:00,63.5,53.5,29.27,ENE,67,2.1,-999.0,70,0.00,,,0.00,Rainwise IP-100,2013-01-09 18:53:00,
2013-01-09 13:58:00,63.4,53.5,29.27,East,90,2.8,-999.0,70,0.00,,,0.00,Rainwise IP-100,2013-01-09 18:58:00,
2013-01-09 14:03:00,63.3,53.5,29.26,ESE,112,0.0,-999.0,70,0.00,,,0.00,Rainwise IP-100,2013-01-09 19:03:00,
2013-01-09 14:08:00,63.1,53.5,29.26,SSE,157,1.6,-999.0,70,0.00,,,0.00,Rainwise IP-100,2013-01-09 19:08:00,
2013-01-09 14:13:00,62.9,53.5,29.27,SSW,202,0.0,-999.0,71,0.00,,,0.00,Rainwise IP-100,2013-01-09 19:13:00,
2013-01-09 14:18:00,62.9,53.5,29.26,ESE,112,0.0,-999.0,71,0.00,,,0.00,Rainwise IP-100,2013-01-09 19:18:00,
2013-01-09 14:23:00,63.0,54.0,29.27,ESE,112,0.0,-999.0,72,0.00,,,0.00,Rainwise IP-100,2013-01-09 19:23:00,
2013-01-09 14:28:00,63.1,54.0,29.26,ENE,67,0.0,-999.0,72,0.00,,,0.00,Rainwise IP-100,2013-01-09 19:28:00,
2013-01-09 14:33:00,63.0,54.0,29.27,SE,135,0.0,-999.0,72,0.00,,,0.00,Rainwise IP-100,2013-01-09 19:33:00,
2013-01-09 14:38:00,62.9,54.0,29.27,ENE,67,0.0,-999.0,72,0.00,,,0.00,Rainwise IP-100,2013-01-09 19:38:00,
2013-01-09 14:43:00,62.9,54.0,29.27,ENE,67,1.6,-999.0,73,0.00,,,0.00,Rainwise IP-100,2013-01-09 19:43:00,
2013-01-09 14:48:00,62.8,54.0,29.27,WSW,247,0.0,-999.0,73,0.00,,,0.00,Rainwise IP-100,2013-01-09 19:48:00,
2013-01-09 14:53:00,62.7,54.0,29.27,ENE,67,0.0,-999.0,74,0.00,,,0.00,Rainwise IP-100,2013-01-09 19:53:00,
2013-01-09 14:58:00,62.6,54.0,29.27,SSE,157,0.0,-999.0,74,0.00,,,0.00,Rainwise IP-100,2013-01-09 19:58:00,
2013-01-09 15:03:00,62.6,54.5,29.27,SSE,157,0.0,-999.0,75,0.00,,,0.00,Rainwise IP-100,2013-01-09 20:03:00,
2013-01-09 15:08:00,62.6,54.5,29.27,ENE,67,1.9,-999.0,75,0.00,,,0.00,Rainwise IP-100,2013-01-09 20:08:00,
2013-01-09 15:13:00,62.6,54.5,29.27,ENE,67,1.6,-999.0,75,0.00,,,0.00,Rainwise IP-100,2013-01-09 20:13:00,
2013-01-09 15:18:00,62.7,54.5,29.27,ENE,67,0.0,-999.0,75,0.00,,,0.00,Rainwise IP-100,2013-01-09 20:18:00,
2013-01-09 15:23:00,62.7,54.0,29.27,WNW,292,0.0,-999.0,74,0.00,,,0.00,Rainwise IP-100,2013-01-09 20:23:00,
2013-01-09 15:28:00,62.7,54.0,29.27,ENE,67,0.0,-999.0,74,0.00,,,0.00,Rainwise IP-100,2013-01-09 20:28:00,
2013-01-09 15:33:00,62.7,54.0,29.27,ENE,67,1.2,-999.0,74,0.00,,,0.00,Rainwise IP-100,2013-01-09 20:33:00,
2013-01-09 15:38:00,62.7,54.0,29.27,ESE,112,0.0,-999.0,74,0.00,,,0.00,Rainwise IP-100,2013-01-09 20:38:00,
2013-01-09 15:43:00,62.6,54.0,29.27,ESE,112,0.0,-999.0,74,0.00,,,0.00,Rainwise IP-100,2013-01-09 20:43:00,
2013-01-09 15:48:00,62.7,54.0,29.27,ESE,112,0.0,-999.0,74,0.00,,,0.00,Rainwise IP-100,2013-01-09 20:48:00,
2013-01-09 15:53:00,62.7,54.0,29.27,ESE,112,0.0,-999.0,74,0.00,,,0.00,Rainwise IP-100,2013-01-09 20:53:00,
2013-01-09 15:58:00,62.7,54.0,29.28,ENE,67,0.0,-999.0,74,0.00,,,0.00,Rainwise IP-100,2013-01-09 20:58:00,
2013-01-09 16:03:00,62.8,54.5,29.27,ESE,112,0.0,-999.0,74,0.00,,,0.00,Rainwise IP-100,2013-01-09 21:03:00,
2013-01-09 16:08:00,62.7,54.0,29.28,WSW,247,0.0,-999.0,74,0.00,,,0.00,Rainwise IP-100,2013-01-09 21:08:00,
2013-01-09 16:13:00,62.6,54.0,29.27,ESE,112,0.0,-999.0,74,0.00,,,0.00,Rainwise IP-100,2013-01-09 21:13:00,
2013-01-09 16:18:00,62.7,54.0,29.27,ESE,112,0.0,-999.0,74,0.00,,,0.00,Rainwise IP-100,2013-01-09 21:18:00,
2013-01-09 16:23:00,62.7,54.0,29.27,ENE,67,0.0,-999.0,73,0.00,,,0.00,Rainwise IP-100,2013-01-09 21:23:00,
2013-01-09 16:28:00,62.8,54.0,29.28,ENE,67,0.0,-999.0,73,0.00,,,0.00,Rainwise IP-100,2013-01-09 21:28:00,
2013-01-09 16:33:00,62.9,54.0,29.28,ENE,67,0.0,-999.0,73,0.00,,,0.00,Rainwise IP-100,2013-01-09 21:33:00,
2013-01-09 16:38:00,62.9,54.5,29.27,ENE,67,0.0,-999.0,74,0.00,,,0.00,Rainwise IP-100,2013-01-09 21:38:00,
2013-01-09 16:43:00,62.9,54.0,29.28,ENE,67,0.0,-999.0,73,0.00,,,0.00,Rainwise IP-100,2013-01-09 21:43:00,
2013-01-09 16:48:00,62.8,54.0,29.28,ENE,67,0.0,-999.0,73,0.00,,,0.00,Rainwise IP-100,2013-01-09 21:48:00,
2013-01-09 16:53:00,62.7,54.0,29.28,ENE,67,0.0,-999.0,73,0.00,,,0.00,Rainwise IP-100,2013-01-09 21:53:00,
2013-01-09 16:58:00,62.6,54.0,29.28,ENE,67,1.2,-999.0,73,0.00,,,0.00,Rainwise IP-100,2013-01-09 21:58:00,
2013-01-09 17:03:00,62.5,54.0,29.27,NE,45,0.0,-999.0,73,0.00,,,0.00,Rainwise IP-100,2013-01-09 22:03:00,
2013-01-09 17:08:00,62.3,54.0,29.27,ENE,67,1.2,-999.0,73,0.00,,,0.00,Rainwise IP-100,2013-01-09 22:08:00,
2013-01-09 17:13:00,62.2,53.5,29.27,ESE,112,0.0,-999.0,73,0.00,,,0.00,Rainwise IP-100,2013-01-09 22:13:00,
2013-01-09 17:18:00,62.0,53.5,29.28,ESE,112,0.0,-999.0,74,0.00,,,0.00,Rainwise IP-100,2013-01-09 22:18:00,
2013-01-09 17:23:00,61.8,53.5,29.28,ENE,67,0.0,-999.0,74,0.00,,,0.00,Rainwise IP-100,2013-01-09 22:23:00,
2013-01-09 17:27:00,61.8,53.5,29.28,ENE,67,0.0,-999.0,74,0.00,,,0.00,Rainwise IP-100,2013-01-09 22:27:00,
2013-01-09 17:32:00,61.6,53.5,29.28,ENE,67,0.0,-999.0,74,0.00,,,0.00,Rainwise IP-100,2013-01-09 22:32:00,
2013-01-09 17:37:00,61.4,53.5,29.28,ENE,67,0.0,-999.0,74,0.00,,,0.00,Rainwise IP-100,2013-01-09 22:37:00,
2013-01-09 17:42:00,61.2,53.5,29.29,ENE,67,0.0,-999.0,75,0.00,,,0.00,Rainwise IP-100,2013-01-09 22:42:00,
2013-01-09 17:47:00,61.0,53.5,29.29,ENE,67,0.0,-999.0,75,0.00,,,0.00,Rainwise IP-100,2013-01-09 22:47:00,
2013-01-09 17:52:00,60.9,53.5,29.29,ENE,67,0.0,-999.0,75,0.00,,,0.00,Rainwise IP-100,2013-01-09 22:52:00,
2013-01-09 17:57:00,60.8,53.5,29.28,ENE,67,0.0,-999.0,75,0.00,,,0.00,Rainwise IP-100,2013-01-09 22:57:00,
2013-01-09 18:02:00,60.6,53.0,29.28,ENE,67,0.0,-999.0,76,0.00,,,0.00,Rainwise IP-100,2013-01-09 23:02:00,
2013-01-09 18:07:00,60.4,53.0,29.29,ENE,67,0.0,-999.0,76,0.00,,,0.00,Rainwise IP-100,2013-01-09 23:07:00,
2013-01-09 18:12:00,60.2,53.0,29.29,ENE,67,0.0,-999.0,77,0.00,,,0.00,Rainwise IP-100,2013-01-09 23:12:00,
2013-01-09 18:17:00,60.0,53.0,29.28,ENE,67,0.0,-999.0,77,0.00,,,0.00,Rainwise IP-100,2013-01-09 23:17:00,
2013-01-09 18:22:00,59.9,53.0,29.28,ENE,67,0.0,-999.0,77,0.00,,,0.00,Rainwise IP-100,2013-01-09 23:22:00,
2013-01-09 18:27:00,59.7,53.0,29.28,ENE,67,1.9,-999.0,78,0.00,,,0.00,Rainwise IP-100,2013-01-09 23:27:00,
2013-01-09 18:32:00,59.6,53.0,29.28,ENE,67,0.0,-999.0,78,0.00,,,0.00,Rainwise IP-100,2013-01-09 23:32:00,
2013-01-09 18:37:00,59.5,52.0,29.28,ENE,67,0.0,-999.0,77,0.00,,,0.00,Rainwise IP-100,2013-01-09 23:37:00,
2013-01-09 18:42:00,59.3,52.0,29.28,ENE,67,0.0,-999.0,77,0.00,,,0.00,Rainwise IP-100,2013-01-09 23:42:00,
2013-01-09 18:47:00,59.1,52.0,29.28,ENE,67,0.0,-999.0,77,0.00,,,0.00,Rainwise IP-100,2013-01-09 23:47:00,
2013-01-09 18:52:00,58.9,52.0,29.27,ENE,67,0.0,-999.0,78,0.00,,,0.00,Rainwise IP-100,2013-01-09 23:52:00,
2013-01-09 18:57:00,58.7,52.0,29.27,ENE,67,0.0,-999.0,78,0.00,,,0.00,Rainwise IP-100,2013-01-09 23:57:00,
2013-01-09 19:02:00,58.6,52.0,29.28,ENE,67,0.0,-999.0,78,0.00,,,0.00,Rainwise IP-100,2013-01-10 00:02:00,
2013-01-09 19:07:00,58.6,52.0,29.28,SE,135,0.0,-999.0,77,0.00,,,0.00,Rainwise IP-100,2013-01-10 00:07:00,
2013-01-09 19:12:00,58.5,52.0,29.28,SE,135,0.0,-999.0,77,0.00,,,0.00,Rainwise IP-100,2013-01-10 00:12:00,
2013-01-09 19:17:00,58.4,51.0,29.29,SE,135,0.0,-999.0,77,0.00,,,0.00,Rainwise IP-100,2013-01-10 00:17:00,
2013-01-09 19:22:00,58.3,51.0,29.29,SE,135,0.0,-999.0,77,0.00,,,0.00,Rainwise IP-100,2013-01-10 00:22:00,
2013-01-09 19:27:00,58.3,51.0,29.29,SE,135,0.0,-999.0,77,0.00,,,0.00,Rainwise IP-100,2013-01-10 00:27:00,
2013-01-09 19:32:00,58.2,51.0,29.30,SE,135,0.0,-999.0,77,0.00,,,0.00,Rainwise IP-100,2013-01-10 00:32:00,
2013-01-09 19:37:00,58.2,51.0,29.30,SE,135,0.0,-999.0,77,0.00,,,0.00,Rainwise IP-100,2013-01-10 00:37:00,
2013-01-09 19:42:00,58.3,51.0,29.30,SE,135,0.0,-999.0,77,0.00,,,0.00,Rainwise IP-100,2013-01-10 00:42:00,
2013-01-09 19:47:00,58.3,51.0,29.30,SE,135,0.0,-999.0,77,0.00,,,0.00,Rainwise IP-100,2013-01-10 00:47:00,
2013-01-09 19:52:00,58.3,51.0,29.30,SE,135,0.0,-999.0,77,0.00,,,0.00,Rainwise IP-100,2013-01-10 00:52:00,
2013-01-09 19:57:00,58.3,51.0,29.30,SE,135,0.0,-999.0,77,0.00,,,0.00,Rainwise IP-100,2013-01-10 00:57:00,
2013-01-09 20:02:00,58.2,51.0,29.30,SE,135,0.0,-999.0,77,0.00,,,0.00,Rainwise IP-100,2013-01-10 01:02:00,
2013-01-09 20:07:00,58.1,51.0,29.30,SE,135,0.0,-999.0,77,0.00,,,0.00,Rainwise IP-100,2013-01-10 01:07:00,
2013-01-09 20:12:00,58.0,51.0,29.30,SE,135,0.0,-999.0,77,0.00,,,0.00,Rainwise IP-100,2013-01-10 01:12:00,
2013-01-09 20:17:00,57.8,51.0,29.31,SE,135,0.0,-999.0,77,0.00,,,0.00,Rainwise IP-100,2013-01-10 01:17:00,
2013-01-09 20:22:00,57.7,50.5,29.31,SE,135,0.0,-999.0,78,0.00,,,0.00,Rainwise IP-100,2013-01-10 01:22:00,
2013-01-09 20:27:00,57.6,50.5,29.31,SE,135,0.0,-999.0,78,0.00,,,0.00,Rainwise IP-100,2013-01-10 01:27:00,
2013-01-09 20:32:00,57.6,50.5,29.31,SE,135,0.0,-999.0,78,0.00,,,0.00,Rainwise IP-100,2013-01-10 01:32:00,
2013-01-09 20:37:00,57.5,50.5,29.31,SE,135,0.0,-999.0,78,0.00,,,0.00,Rainwise IP-100,2013-01-10 01:37:00,
2013-01-09 20:42:00,57.5,50.5,29.31,SE,135,0.0,-999.0,78,0.00,,,0.00,Rainwise IP-100,2013-01-10 01:42:00,
2013-01-09 20:47:00,57.5,50.5,29.31,SE,135,0.0,-999.0,78,0.00,,,0.00,Rainwise IP-100,2013-01-10 01:47:00,
2013-01-09 20:52:00,57.5,50.5,29.31,SE,135,0.0,-999.0,78,0.00,,,0.00,Rainwise IP-100,2013-01-10 01:52:00,
2013-01-09 20:57:00,57.4,50.5,29.31,SE,135,0.0,-999.0,78,0.00,,,0.00,Rainwise IP-100,2013-01-10 01:57:00,
2013-01-09 21:02:00,57.3,51.0,29.31,SE,135,0.0,-999.0,79,0.00,,,0.00,Rainwise IP-100,2013-01-10 02:02:00,
2013-01-09 21:07:00,57.3,51.0,29.31,SE,135,0.0,-999.0,79,0.00,,,0.00,Rainwise IP-100,2013-01-10 02:07:00,
2013-01-09 21:12:00,57.2,50.5,29.31,SE,135,0.0,-999.0,79,0.00,,,0.00,Rainwise IP-100,2013-01-10 02:12:00,
2013-01-09 21:17:00,57.0,50.5,29.31,SE,135,0.0,-999.0,79,0.00,,,0.00,Rainwise IP-100,2013-01-10 02:17:00,
2013-01-09 21:22:00,56.8,51.0,29.31,SE,135,0.0,-999.0,80,0.00,,,0.00,Rainwise IP-100,2013-01-10 02:22:00,
2013-01-09 21:27:00,56.7,50.5,29.32,SE,135,0.0,-999.0,80,0.00,,,0.00,Rainwise IP-100,2013-01-10 02:27:00,
2013-01-09 21:32:00,56.6,50.5,29.32,SE,135,0.0,-999.0,80,0.00,,,0.00,Rainwise IP-100,2013-01-10 02:32:00,
2013-01-09 21:37:00,56.5,50.5,29.32,SE,135,0.0,-999.0,81,0.00,,,0.00,Rainwise IP-100,2013-01-10 02:37:00,
2013-01-09 21:42:00,56.4,50.5,29.32,SE,135,0.0,-999.0,81,0.00,,,0.00,Rainwise IP-100,2013-01-10 02:42:00,
2013-01-09 21:47:00,56.4,50.5,29.32,SE,135,0.0,-999.0,81,0.00,,,0.00,Rainwise IP-100,2013-01-10 02:47:00,
2013-01-09 21:52:00,56.6,50.5,29.32,SE,135,0.0,-999.0,81,0.00,,,0.00,Rainwise IP-100,2013-01-10 02:52:00,
2013-01-09 21:57:00,56.7,50.5,29.32,SE,135,0.0,-999.0,81,0.00,,,0.00,Rainwise IP-100,2013-01-10 02:57:00,
2013-01-09 22:02:00,56.7,50.5,29.31,SE,135,0.0,-999.0,81,0.00,,,0.00,Rainwise IP-100,2013-01-10 03:02:00,
2013-01-09 22:07:00,56.8,51.0,29.31,SE,135,0.0,-999.0,81,0.00,,,0.00,Rainwise IP-100,2013-01-10 03:07:00,
2013-01-09 22:12:00,56.7,50.5,29.31,SE,135,0.0,-999.0,81,0.00,,,0.00,Rainwise IP-100,2013-01-10 03:12:00,
2013-01-09 22:17:00,56.6,50.5,29.31,SE,135,0.0,-999.0,81,0.00,,,0.00,Rainwise IP-100,2013-01-10 03:17:00,
2013-01-09 22:22:00,56.4,50.5,29.32,SE,135,0.0,-999.0,81,0.00,,,0.00,Rainwise IP-100,2013-01-10 03:22:00,
2013-01-09 22:27:00,56.3,50.5,29.32,SE,135,0.0,-999.0,81,0.00,,,0.00,Rainwise IP-100,2013-01-10 03:27:00,
2013-01-09 22:32:00,56.3,51.0,29.32,SE,135,0.0,-999.0,82,0.00,,,0.00,Rainwise IP-100,2013-01-10 03:32:00,
2013-01-09 22:37:00,56.3,51.0,29.32,SE,135,0.0,-999.0,82,0.00,,,0.00,Rainwise IP-100,2013-01-10 03:37:00,
2013-01-09 22:42:00,56.3,51.0,29.32,SE,135,0.0,-999.0,82,0.00,,,0.00,Rainwise IP-100,2013-01-10 03:42:00,
2013-01-09 22:47:00,56.3,51.0,29.32,SE,135,0.0,-999.0,82,0.00,,,0.00,Rainwise IP-100,2013-01-10 03:47:00,
2013-01-09 22:52:00,56.4,51.0,29.32,SE,135,0.0,-999.0,82,0.00,,,0.00,Rainwise IP-100,2013-01-10 03:52:00,
2013-01-09 22:57:00,56.4,51.0,29.32,SE,135,0.0,-999.0,82,0.00,,,0.00,Rainwise IP-100,2013-01-10 03:57:00,
2013-01-09 23:02:00,56.4,51.0,29.32,SE,135,0.0,-999.0,82,0.00,,,0.00,Rainwise IP-100,2013-01-10 04:02:00,
2013-01-09 23:07:00,56.6,50.5,29.32,SE,135,0.0,-999.0,81,0.00,,,0.00,Rainwise IP-100,2013-01-10 04:07:00,
2013-01-09 23:12:00,56.7,50.5,29.32,SE,135,0.0,-999.0,81,0.00,,,0.00,Rainwise IP-100,2013-01-10 04:12:00,
2013-01-09 23:17:00,56.7,50.5,29.32,SE,135,0.0,-999.0,81,0.00,,,0.00,Rainwise IP-100,2013-01-10 04:17:00,
2013-01-09 23:22:00,56.7,50.5,29.32,SE,135,0.0,-999.0,81,0.00,,,0.00,Rainwise IP-100,2013-01-10 04:22:00,
2013-01-09 23:27:00,56.6,50.5,29.32,SE,135,0.0,-999.0,81,0.00,,,0.00,Rainwise IP-100,2013-01-10 04:27:00,
2013-01-09 23:32:00,56.5,50.5,29.32,SE,135,0.0,-999.0,81,0.00,,,0.00,Rainwise IP-100,2013-01-10 04:32:00,
2013-01-09 23:37:00,56.4,51.0,29.32,SE,135,0.0,-999.0,82,0.00,,,0.00,Rainwise IP-100,2013-01-10 04:37:00,
2013-01-09 23:42:00,56.3,51.0,29.32,SE,135,0.0,-999.0,82,0.00,,,0.00,Rainwise IP-100,2013-01-10 04:42:00,
2013-01-09 23:47:00,56.3,51.0,29.32,SE,135,0.0,-999.0,82,0.00,,,0.00,Rainwise IP-100,2013-01-10 04:47:00,
2013-01-09 23:52:00,56.2,50.5,29.32,SE,135,0.0,-999.0,82,0.00,,,0.00,Rainwise IP-100,2013-01-10 04:52:00,
2013-01-09 23:57:00,56.1,50.5,29.32,SE,135,0.0,-999.0,82,0.00,,,0.00,Rainwise IP-100,2013-01-10 04:57:00,